INTELSAT 37E (IS-37E)

Last updated on Thu Nov 21 2024 00:02:43 GMT+0000 (Coordinated Universal Time)

1 42950U 17059A 24325.59392399 -.00000139 00000+0 00000+0 0 9999 2 42950 0.0161 327.4873 0003137 271.2225 17.2029 1.00270359 26319
UTC large
Height (km)
Speed (km/s)
/
Latitude / Longitude
Inclination (degrees)
Orbital Period (minutes)
Azimuth
Elevation
Range (km)
Doppler Factor

Next 0 passes for location: London (51.5072 / 0.1276)

Sorry there are no passes over London.